Time,TemperatureF,DewpointF,PressureIn,WindDirection,WindDirectionDegrees,WindSpeedMPH,WindSpeedGustMPH,Humidity,HourlyPrecipIn,Conditions,Clouds,dailyrainin,SolarRadiationWatts/m^2,SoftwareType,DateUTC
2013-03-15 00:14:00,23.0,14.0,29.97,WSW,254,4.0,13.0,69,0.00,,,0.00,0,weatherlink.com 1.10,2013-03-15 04:14:00,
2013-03-15 00:29:00,22.8,13.0,29.97,West,267,5.0,15.0,65,0.00,,,0.00,0,weatherlink.com 1.10,2013-03-15 04:29:00,
2013-03-15 00:44:00,22.5,12.0,29.97,WNW,292,9.0,13.0,65,0.00,,,0.00,0,weatherlink.com 1.10,2013-03-15 04:44:00,
2013-03-15 00:59:00,22.2,12.0,29.97,West,266,4.0,13.0,66,0.00,,,0.00,0,weatherlink.com 1.10,2013-03-15 04:59:00,
2013-03-15 01:14:00,22.0,13.0,29.97,NW,304,4.0,12.0,67,0.00,,,0.00,0,weatherlink.com 1.10,2013-03-15 05:14:00,
2013-03-15 01:29:00,21.9,12.0,29.97,West,277,2.0,10.0,67,0.00,,,0.00,0,weatherlink.com 1.10,2013-03-15 05:29:00,
2013-03-15 01:44:00,21.8,13.0,29.97,WSW,242,4.0,11.0,68,0.00,,,0.00,0,weatherlink.com 1.10,2013-03-15 05:44:00,
2013-03-15 01:59:00,21.6,13.0,29.98,WSW,250,4.0,10.0,69,0.00,,,0.00,0,weatherlink.com 1.10,2013-03-15 05:59:00,
2013-03-15 02:14:00,21.3,13.0,29.98,WNW,284,4.0,8.0,69,0.00,,,0.00,0,weatherlink.com 1.10,2013-03-15 06:14:00,
2013-03-15 02:29:00,20.8,13.0,29.98,West,262,2.0,7.0,71,0.00,,,0.00,0,weatherlink.com 1.10,2013-03-15 06:29:00,
2013-03-15 02:44:00,20.5,12.0,29.98,West,276,2.0,6.0,71,0.00,,,0.00,0,weatherlink.com 1.10,2013-03-15 06:44:00,
2013-03-15 02:59:00,19.8,12.0,29.97,West,261,2.0,5.0,72,0.00,,,0.00,0,weatherlink.com 1.10,2013-03-15 06:59:00,
2013-03-15 03:14:00,19.0,12.0,29.96,West,259,3.0,7.0,74,0.00,,,0.00,0,weatherlink.com 1.10,2013-03-15 07:14:00,
2013-03-15 03:29:00,18.4,12.0,29.96,West,274,4.0,6.0,75,0.00,,,0.00,0,weatherlink.com 1.10,2013-03-15 07:29:00,
2013-03-15 03:44:00,18.1,12.0,29.95,West,263,3.0,6.0,76,0.00,,,0.00,0,weatherlink.com 1.10,2013-03-15 07:44:00,
2013-03-15 03:59:00,17.9,12.0,29.95,West,271,2.0,7.0,76,0.00,,,0.00,0,weatherlink.com 1.10,2013-03-15 07:59:00,
2013-03-15 04:14:00,17.6,12.0,29.94,West,265,4.0,5.0,77,0.00,,,0.00,0,weatherlink.com 1.10,2013-03-15 08:14:00,
2013-03-15 04:29:00,18.4,12.0,29.94,WSW,251,3.0,6.0,76,0.00,,,0.00,0,weatherlink.com 1.10,2013-03-15 08:29:00,
2013-03-15 04:44:00,18.0,12.0,29.93,West,263,0.0,5.0,77,0.00,,,0.00,0,weatherlink.com 1.10,2013-03-15 08:44:00,
2013-03-15 04:59:00,17.9,12.0,29.93,WSW,252,3.0,5.0,77,0.00,,,0.00,0,weatherlink.com 1.10,2013-03-15 08:59:00,
2013-03-15 05:15:00,18.9,13.0,29.93,WSW,253,5.0,6.0,77,0.00,,,0.00,0,weatherlink.com 1.10,2013-03-15 09:15:00,
2013-03-15 05:29:00,19.4,13.0,29.92,WSW,245,5.0,7.0,77,0.00,,,0.00,0,weatherlink.com 1.10,2013-03-15 09:29:00,
2013-03-15 05:44:00,19.4,14.0,29.91,WSW,247,3.0,4.0,78,0.00,,,0.00,0,weatherlink.com 1.10,2013-03-15 09:44:00,
2013-03-15 05:59:00,19.5,14.0,29.91,WSW,246,6.0,7.0,79,0.00,,,0.00,0,weatherlink.com 1.10,2013-03-15 09:59:00,
2013-03-15 06:14:00,19.7,15.0,29.91,WSW,238,7.0,9.0,80,0.00,,,0.00,0,weatherlink.com 1.10,2013-03-15 10:14:00,
2013-03-15 06:29:00,20.0,15.0,29.91,WSW,248,5.0,10.0,80,0.00,,,0.00,0,weatherlink.com 1.10,2013-03-15 10:29:00,
2013-03-15 06:44:00,20.1,15.0,29.89,SW,227,7.0,9.0,81,0.00,,,0.00,0,weatherlink.com 1.10,2013-03-15 10:44:00,
2013-03-15 06:59:00,20.2,15.0,29.89,WSW,237,4.0,6.0,81,0.00,,,0.00,0,weatherlink.com 1.10,2013-03-15 10:59:00,
2013-03-15 07:15:00,20.2,15.0,29.89,WSW,250,4.0,6.0,80,0.00,,,0.00,0,weatherlink.com 1.10,2013-03-15 11:15:00,
2013-03-15 07:30:00,19.9,15.0,29.88,WSW,242,2.0,5.0,80,0.00,,,0.00,12,weatherlink.com 1.10,2013-03-15 11:30:00,
2013-03-15 07:45:00,20.1,15.0,29.87,SSW,198,2.0,3.0,80,0.00,,,0.00,18,weatherlink.com 1.10,2013-03-15 11:45:00,
2013-03-15 08:00:00,20.4,15.0,29.86,WSW,238,5.0,6.0,80,0.00,,,0.00,40,weatherlink.com 1.10,2013-03-15 12:00:00,
2013-03-15 08:15:00,21.4,16.0,29.86,SW,234,5.0,9.0,79,0.00,,,0.00,67,weatherlink.com 1.10,2013-03-15 12:15:00,
2013-03-15 08:30:00,22.6,16.0,29.85,West,264,7.0,9.0,77,0.00,,,0.00,142,weatherlink.com 1.10,2013-03-15 12:30:00,
2013-03-15 08:45:00,23.3,17.0,29.85,SW,235,0.0,8.0,75,0.00,,,0.00,118,weatherlink.com 1.10,2013-03-15 12:45:00,
2013-03-15 09:00:00,23.7,17.0,29.84,WSW,250,5.0,8.0,75,0.00,,,0.00,155,weatherlink.com 1.10,2013-03-15 13:00:00,
2013-03-15 09:15:00,24.2,17.0,29.84,SSW,206,1.0,9.0,75,0.00,,,0.00,171,weatherlink.com 1.10,2013-03-15 13:15:00,
2013-03-15 09:30:00,24.5,18.0,29.82,South,188,3.0,13.0,75,0.00,,,0.00,209,weatherlink.com 1.10,2013-03-15 13:30:00,
2013-03-15 09:45:00,25.7,18.0,29.81,SSW,209,1.0,9.0,74,0.00,,,0.00,248,weatherlink.com 1.10,2013-03-15 13:45:00,
2013-03-15 10:00:00,26.9,19.0,29.80,SSW,203,5.0,12.0,73,0.00,,,0.00,232,weatherlink.com 1.10,2013-03-15 14:00:00,
2013-03-15 10:15:00,27.8,20.0,29.79,ESE,115,4.0,12.0,71,0.00,,,0.00,410,weatherlink.com 1.10,2013-03-15 14:15:00,
2013-03-15 10:30:00,28.4,20.0,29.78,South,178,3.0,10.0,71,0.00,,,0.00,371,weatherlink.com 1.10,2013-03-15 14:30:00,
2013-03-15 10:45:00,29.5,21.0,29.78,SW,236,8.0,14.0,70,0.00,,,0.00,313,weatherlink.com 1.10,2013-03-15 14:45:00,
2013-03-15 11:00:00,29.8,21.0,29.77,South,175,3.0,15.0,69,0.00,,,0.00,339,weatherlink.com 1.10,2013-03-15 15:00:00,
2013-03-15 11:15:00,30.2,22.0,29.77,WSW,238,4.0,11.0,70,0.00,,,0.00,160,weatherlink.com 1.10,2013-03-15 15:15:00,
2013-03-15 11:30:00,29.3,24.0,29.76,SW,233,10.0,15.0,80,0.00,,,0.00,148,weatherlink.com 1.10,2013-03-15 15:30:00,
2013-03-15 11:45:00,28.9,24.0,29.75,SW,225,6.0,9.0,82,0.00,,,0.00,225,weatherlink.com 1.10,2013-03-15 15:45:00,
2013-03-15 12:00:00,29.3,25.0,29.74,SSW,207,3.0,11.0,85,0.00,,,0.00,162,weatherlink.com 1.10,2013-03-15 16:00:00,
2013-03-15 12:15:00,29.3,25.0,29.73,WSW,238,8.0,10.0,83,0.00,,,0.00,120,weatherlink.com 1.10,2013-03-15 16:15:00,
2013-03-15 12:31:00,29.2,25.0,29.73,WSW,254,10.0,11.0,84,0.00,,,0.00,116,weatherlink.com 1.10,2013-03-15 16:31:00,
2013-03-15 12:46:00,29.4,26.0,29.72,SW,236,7.0,12.0,85,0.00,,,0.00,167,weatherlink.com 1.10,2013-03-15 16:46:00,
2013-03-15 13:01:00,29.8,26.0,29.72,West,269,9.0,13.0,87,0.00,,,0.00,186,weatherlink.com 1.10,2013-03-15 17:01:00,
2013-03-15 13:16:00,30.6,28.0,29.71,SW,221,6.0,15.0,89,0.00,,,0.00,139,weatherlink.com 1.10,2013-03-15 17:16:00,
2013-03-15 13:31:00,31.0,28.0,29.70,WSW,248,7.0,16.0,88,0.01,,,0.01,181,weatherlink.com 1.10,2013-03-15 17:31:00,
2013-03-15 13:46:00,31.5,29.0,29.70,WSW,248,9.0,17.0,89,0.01,,,0.01,281,weatherlink.com 1.10,2013-03-15 17:46:00,
2013-03-15 14:16:00,31.7,29.0,29.68,WSW,257,11.0,19.0,91,0.02,,,0.02,195,weatherlink.com 1.10,2013-03-15 18:16:00,
2013-03-15 15:16:00,32.1,30.0,29.67,WSW,257,11.0,21.0,92,0.02,,,0.04,172,weatherlink.com 1.10,2013-03-15 19:16:00,
2013-03-15 15:31:00,32.0,30.0,29.66,West,269,13.0,19.0,92,0.01,,,0.04,142,weatherlink.com 1.10,2013-03-15 19:31:00,
2013-03-15 16:16:00,32.5,31.0,29.66,WSW,240,11.0,21.0,92,0.01,,,0.05,239,weatherlink.com 1.10,2013-03-15 20:16:00,
2013-03-15 16:31:00,32.9,30.0,29.66,West,271,17.0,20.0,90,0.01,,,0.05,234,weatherlink.com 1.10,2013-03-15 20:31:00,
2013-03-15 16:46:00,33.3,30.0,29.67,West,263,12.0,23.0,86,0.00,,,0.05,225,weatherlink.com 1.10,2013-03-15 20:46:00,
2013-03-15 17:01:00,33.4,30.0,29.67,West,261,10.0,21.0,87,0.00,,,0.05,153,weatherlink.com 1.10,2013-03-15 21:01:00,
2013-03-15 17:16:00,32.9,30.0,29.67,WSW,247,12.0,22.0,89,0.00,,,0.05,118,weatherlink.com 1.10,2013-03-15 21:16:00,
2013-03-15 17:31:00,32.7,30.0,29.67,SW,231,9.0,19.0,89,0.00,,,0.05,102,weatherlink.com 1.10,2013-03-15 21:31:00,
2013-03-15 17:46:00,32.3,30.0,29.67,WSW,248,11.0,22.0,90,0.00,,,0.05,100,weatherlink.com 1.10,2013-03-15 21:46:00,
2013-03-15 18:01:00,32.3,30.0,29.67,WSW,248,11.0,19.0,89,0.00,,,0.05,39,weatherlink.com 1.10,2013-03-15 22:01:00,
2013-03-15 18:16:00,32.8,30.0,29.67,WSW,247,11.0,18.0,89,0.00,,,0.05,155,weatherlink.com 1.10,2013-03-15 22:16:00,
2013-03-15 18:31:00,32.8,29.0,29.67,WSW,247,11.0,21.0,86,0.00,,,0.05,32,weatherlink.com 1.10,2013-03-15 22:31:00,
2013-03-15 18:46:00,32.6,29.0,29.67,WSW,251,10.0,22.0,87,0.00,,,0.05,21,weatherlink.com 1.10,2013-03-15 22:46:00,
2013-03-15 19:01:00,32.7,29.0,29.68,WSW,254,17.0,28.0,86,0.00,,,0.05,5,weatherlink.com 1.10,2013-03-15 23:01:00,
2013-03-15 19:31:00,31.4,30.0,29.70,WSW,258,10.0,17.0,93,0.00,,,0.05,0,weatherlink.com 1.10,2013-03-15 23:31:00,
2013-03-15 19:46:00,31.3,30.0,29.70,SW,232,13.0,15.0,94,0.00,,,0.05,0,weatherlink.com 1.10,2013-03-15 23:46:00,
2013-03-15 20:01:00,31.1,29.0,29.71,West,277,14.0,17.0,93,0.00,,,0.05,0,weatherlink.com 1.10,2013-03-16 00:01:00,
2013-03-15 20:16:00,31.3,29.0,29.72,West,270,9.0,15.0,90,0.00,,,0.05,0,weatherlink.com 1.10,2013-03-16 00:16:00,
2013-03-15 20:31:00,31.2,27.0,29.72,WSW,248,9.0,15.0,85,0.00,,,0.05,0,weatherlink.com 1.10,2013-03-16 00:31:00,
2013-03-15 20:46:00,31.2,26.0,29.73,WSW,243,8.0,21.0,81,0.00,,,0.05,0,weatherlink.com 1.10,2013-03-16 00:46:00,
2013-03-15 21:01:00,31.0,25.0,29.73,WSW,248,7.0,18.0,79,0.00,,,0.05,0,weatherlink.com 1.10,2013-03-16 01:01:00,
2013-03-15 21:16:00,30.8,25.0,29.74,West,265,9.0,11.0,78,0.00,,,0.05,0,weatherlink.com 1.10,2013-03-16 01:16:00,
2013-03-15 21:31:00,30.5,25.0,29.75,WSW,252,2.0,11.0,79,0.00,,,0.05,0,weatherlink.com 1.10,2013-03-16 01:31:00,
2013-03-15 21:46:00,30.5,24.0,29.75,SSW,198,3.0,15.0,77,0.00,,,0.05,0,weatherlink.com 1.10,2013-03-16 01:46:00,
2013-03-15 22:16:00,30.5,23.0,29.77,NW,304,8.0,15.0,75,0.00,,,0.05,0,weatherlink.com 1.10,2013-03-16 02:16:00,
2013-03-15 22:31:00,30.4,23.0,29.77,West,281,3.0,15.0,74,0.00,,,0.05,0,weatherlink.com 1.10,2013-03-16 02:31:00,
2013-03-15 22:46:00,30.1,22.0,29.77,SW,223,7.0,18.0,71,0.00,,,0.05,0,weatherlink.com 1.10,2013-03-16 02:46:00,
2013-03-15 23:01:00,29.6,21.0,29.79,NW,305,4.0,20.0,71,0.00,,,0.05,0,weatherlink.com 1.10,2013-03-16 03:01:00,
2013-03-15 23:16:00,29.2,21.0,29.80,WSW,258,5.0,18.0,72,0.00,,,0.05,0,weatherlink.com 1.10,2013-03-16 03:16:00,
2013-03-15 23:31:00,29.0,22.0,29.80,WNW,298,4.0,16.0,74,0.00,,,0.05,0,weatherlink.com 1.10,2013-03-16 03:31:00,
2013-03-15 23:46:00,28.8,22.0,29.80,WNW,283,8.0,15.0,75,0.00,,,0.05,0,weatherlink.com 1.10,2013-03-16 03:46:00,